When you browse on this site, cookies collect data to enhance your experience and personalize the content and advertising you see.
Visit our Privacy Policy to learn more. By continuing to use the site, you agree to this use of cookies and data.
  • In Austria
  • List of Countries
  • For 7 days
  • Water Temperature
  • Satellite Maps
  • Weather Map
  • News
  • Weather Widgets
  • user-avatar
    Login

    Hourly Weather Stoneham

    Today, 27 May, Monday

    Time Temperature Precipitation Wind Pressure Humidity
    00:00 +20°C° 0 mm 3 mps 754 mmHg 61%
    01:00 +19°C° 0 mm 3 mps 754 mmHg 63%
    02:00 +18°C° 0 mm 3 mps 755 mmHg 67%
    03:00 +17°C° 0 mm 2 mps 755 mmHg 71%
    04:00 +17°C° 0 mm 2 mps 755 mmHg 74%
    05:00 +17°C° 0 mm 2 mps 756 mmHg 70%
    06:00 +18°C° 0 mm 3 mps 756 mmHg 66%
    07:00 +19°C° 0 mm 3 mps 756 mmHg 61%
    08:00 +20°C° 0 mm 3 mps 757 mmHg 54%
    09:00 +21°C° 0 mm 3 mps 757 mmHg 48%
    10:00 +24°C° 0 mm 3 mps 757 mmHg 41%
    11:00 +25°C° 0 mm 3 mps 757 mmHg 38%
    12:00 +25°C° 0 mm 3 mps 757 mmHg 34%
    13:00 +26°C° 0 mm 2 mps 757 mmHg 30%
    14:00 +26°C° 0 mm 3 mps 756 mmHg 31%
    15:00 +26°C° 0 mm 3 mps 756 mmHg 31%
    16:00 +26°C° 0 mm 3 mps 756 mmHg 31%
    17:00 +24°C° 0 mm 3 mps 756 mmHg 35%
    18:00 +23°C° 0 mm 2 mps 756 mmHg 39%
    19:00 +20°C° 0 mm 2 mps 757 mmHg 43%
    20:00 +19°C° 0 mm 2 mps 757 mmHg 44%
    21:00 +18°C° 0 mm 2 mps 758 mmHg 46%
    22:00 +17°C° 0 mm 2 mps 758 mmHg 47%
    23:00 +16°C° 0 mm 2 mps 758 mmHg 49%

    Tomorrow, 28 May, Tuesday

    Time Temperature Precipitation Wind Pressure Humidity
    00:00 +15°C° 0 mm 2 mps 758 mmHg 51%
    01:00 +14°C° 0 mm 1 mps 758 mmHg 52%
    02:00 +13°C° 0 mm 1 mps 758 mmHg 54%
    03:00 +13°C° 0 mm 1 mps 758 mmHg 55%
    04:00 +12°C° 0 mm 1 mps 758 mmHg 56%
    05:00 +13°C° 0 mm 1 mps 758 mmHg 53%
    06:00 +14°C° 0 mm 1 mps 759 mmHg 49%
    07:00 +15°C° 0 mm 1 mps 759 mmHg 45%
    08:00 +16°C° 0.1 mm 1 mps 758 mmHg 46%
    09:00 +16°C° 0.1 mm 1 mps 758 mmHg 46%
    10:00 +16°C° 0.1 mm 1 mps 758 mmHg 47%
    11:00 +15°C° 0.8 mm 2 mps 758 mmHg 55%
    12:00 +14°C° 0.8 mm 2 mps 758 mmHg 63%
    13:00 +13°C° 0.8 mm 2 mps 758 mmHg 71%
    14:00 +12°C° 1.5 mm 2 mps 757 mmHg 75%
    15:00 +12°C° 1.5 mm 2 mps 757 mmHg 79%
    16:00 +10°C° 1.5 mm 3 mps 756 mmHg 83%
    17:00 +10°C° 1.2 mm 3 mps 756 mmHg 85%
    18:00 +10°C° 1.2 mm 2 mps 756 mmHg 87%
    19:00 +10°C° 1.2 mm 2 mps 756 mmHg 89%
    20:00 +10°C° 0.6 mm 2 mps 755 mmHg 90%
    21:00 +10°C° 0.6 mm 2 mps 755 mmHg 91%
    22:00 +10°C° 0.6 mm 2 mps 755 mmHg 92%
    23:00 +10°C° 0.5 mm 2 mps 755 mmHg 92%

    Day after tomorrow, 29 May, Wednesday

    Time Temperature Precipitation Wind Pressure Humidity
    00:00 +10°C° 0.5 mm 3 mps 754 mmHg 93%
    01:00 +10°C° 0.5 mm 3 mps 754 mmHg 93%
    02:00 +10°C° 0.2 mm 3 mps 754 mmHg 93%
    03:00 +10°C° 0.2 mm 3 mps 754 mmHg 93%
    04:00 +10°C° 0.2 mm 3 mps 754 mmHg 94%
    05:00 +11°C° 0.1 mm 3 mps 754 mmHg 93%
    06:00 +11°C° 0.1 mm 3 mps 755 mmHg 93%
    07:00 +11°C° 0.1 mm 3 mps 755 mmHg 93%
    08:00 +11°C° 0 mm 3 mps 755 mmHg 92%
    09:00 +11°C° 0 mm 3 mps 755 mmHg 92%
    10:00 +11°C° 0 mm 3 mps 755 mmHg 92%
    11:00 +12°C° 0 mm 3 mps 755 mmHg 86%
    12:00 +13°C° 0 mm 3 mps 755 mmHg 80%
    13:00 +16°C° 0 mm 3 mps 755 mmHg 74%
    14:00 +16°C° 0 mm 2 mps 755 mmHg 72%
    15:00 +16°C° 0 mm 2 mps 755 mmHg 70%
    16:00 +16°C° 0 mm 2 mps 755 mmHg 68%
    17:00 +16°C° 0 mm 2 mps 755 mmHg 72%
    18:00 +15°C° 0 mm 2 mps 756 mmHg 76%
    19:00 +14°C° 0 mm 2 mps 756 mmHg 80%
    20:00 +13°C° 0 mm 2 mps 756 mmHg 82%
    21:00 +13°C° 0 mm 2 mps 756 mmHg 85%
    22:00 +12°C° 0 mm 2 mps 755 mmHg 87%
    23:00 +12°C° 0 mm 1 mps 755 mmHg 88%

    30 May, Thursday

    Time Temperature Precipitation Wind Pressure Humidity
    00:00 +12°C° 0 mm 1 mps 755 mmHg 90%
    01:00 +11°C° 0 mm 1 mps 755 mmHg 91%
    02:00 +11°C° 0.4 mm 1 mps 755 mmHg 91%
    03:00 +12°C° 0.4 mm 1 mps 755 mmHg 92%
    04:00 +12°C° 0.4 mm 1 mps 755 mmHg 92%
    05:00 +12°C° 0.5 mm 1 mps 755 mmHg 92%
    06:00 +12°C° 0.5 mm 1 mps 755 mmHg 93%
    07:00 +12°C° 0.5 mm 1 mps 755 mmHg 93%
    08:00 +13°C° 0.2 mm 1 mps 755 mmHg 92%
    09:00 +13°C° 0.2 mm 1 mps 755 mmHg 90%
    10:00 +14°C° 0.2 mm 1 mps 755 mmHg 89%
    11:00 +14°C° 0.2 mm 1 mps 755 mmHg 89%
    12:00 +14°C° 0.2 mm 1 mps 755 mmHg 89%
    13:00 +14°C° 0.2 mm 1 mps 755 mmHg 90%
    14:00 +15°C° 0 mm 1 mps 755 mmHg 88%
    15:00 +16°C° 0 mm 2 mps 754 mmHg 87%
    16:00 +16°C° 0 mm 2 mps 754 mmHg 85%
    17:00 +16°C° 0 mm 2 mps 754 mmHg 87%
    18:00 +16°C° 0 mm 1 mps 754 mmHg 89%
    19:00 +16°C° 0 mm 1 mps 754 mmHg 91%
    20:00 +15°C° 0 mm 2 mps 753 mmHg 92%
    21:00 +15°C° 0 mm 2 mps 753 mmHg 94%
    22:00 +15°C° 0 mm 2 mps 753 mmHg 95%
    23:00 +15°C° 0.2 mm 2 mps 752 mmHg 96%

    31 May, Friday

    Time Temperature Precipitation Wind Pressure Humidity
    00:00 +15°C° 0.2 mm 2 mps 752 mmHg 97%
    01:00 +15°C° 0.2 mm 2 mps 751 mmHg 98%
    02:00 +16°C° 1 mm 2 mps 750 mmHg 98%
    03:00 +16°C° 1 mm 2 mps 750 mmHg 98%
    04:00 +16°C° 1 mm 3 mps 749 mmHg 98%
    05:00 +17°C° 0 mm 3 mps 749 mmHg 98%
    06:00 +18°C° 0 mm 3 mps 749 mmHg 97%
    07:00 +19°C° 0 mm 3 mps 748 mmHg 96%
    08:00 +21°C° 0 mm 4 mps 748 mmHg 85%
    09:00 +23°C° 0 mm 4 mps 748 mmHg 75%
    10:00 +27°C° 0 mm 5 mps 748 mmHg 64%
    11:00 +27°C° 0.5 mm 5 mps 747 mmHg 63%
    12:00 +28°C° 0.5 mm 5 mps 747 mmHg 61%
    13:00 +29°C° 0.5 mm 5 mps 747 mmHg 60%
    14:00 +28°C° 1.5 mm 5 mps 747 mmHg 63%
    15:00 +27°C° 1.5 mm 4 mps 747 mmHg 66%
    16:00 +26°C° 1.5 mm 4 mps 747 mmHg 69%
    17:00 +23°C° 1.2 mm 4 mps 748 mmHg 72%
    18:00 +22°C° 1.2 mm 4 mps 748 mmHg 75%
    19:00 +21°C° 1.2 mm 3 mps 749 mmHg 78%
    20:00 +19°C° 0 mm 3 mps 750 mmHg 78%
    21:00 +18°C° 0 mm 3 mps 751 mmHg 79%
    22:00 +17°C° 0 mm 3 mps 752 mmHg 79%
    23:00 +16°C° 0 mm 2 mps 752 mmHg 79%

    1 June, Saturday

    Time Temperature Precipitation Wind Pressure Humidity
    00:00 +15°C° 0 mm 2 mps 752 mmHg 79%
    01:00 +14°C° 0 mm 2 mps 753 mmHg 79%
    02:00 +14°C° 0 mm 2 mps 753 mmHg 81%
    03:00 +13°C° 0 mm 1 mps 754 mmHg 82%
    04:00 +13°C° 0 mm 1 mps 754 mmHg 83%
    05:00 +14°C° 0 mm 1 mps 755 mmHg 76%
    06:00 +15°C° 0 mm 0 mps 755 mmHg 69%
    07:00 +16°C° 0 mm 0 mps 756 mmHg 62%
    08:00 +20°C° 0 mm 1 mps 756 mmHg 53%
    09:00 +21°C° 0 mm 1 mps 756 mmHg 45%
    10:00 +23°C° 0 mm 1 mps 756 mmHg 37%
    11:00 +24°C° 0 mm 2 mps 756 mmHg 35%
    12:00 +25°C° 0 mm 2 mps 756 mmHg 33%
    13:00 +25°C° 0 mm 2 mps 756 mmHg 31%
    14:00 +25°C° 0 mm 3 mps 755 mmHg 32%
    15:00 +25°C° 0 mm 3 mps 755 mmHg 33%
    16:00 +25°C° 0 mm 4 mps 755 mmHg 34%
    17:00 +22°C° 0 mm 4 mps 755 mmHg 41%
    18:00 +21°C° 0 mm 4 mps 756 mmHg 47%
    19:00 +19°C° 0 mm 5 mps 756 mmHg 53%
    20:00 +18°C° 0 mm 4 mps 756 mmHg 54%
    21:00 +17°C° 0 mm 4 mps 756 mmHg 55%
    22:00 +16°C° 0 mm 3 mps 757 mmHg 56%
    23:00 +14°C° 0 mm 3 mps 757 mmHg 59%
    Show more